Time,TemperatureF,DewpointF,PressureIn,WindDirection,WindDirectionDegrees,WindSpeedMPH,WindSpeedGustMPH,Humidity,HourlyPrecipIn,Conditions,Clouds,dailyrainin,SoftwareType,DateUTC
2013-11-12 00:05:00,38.6,35.0,30.15,WSW,246,0.0,0.0,85,0.00,,,0.00,weatherlink.com 1.10,2013-11-12 05:05:00,
2013-11-12 00:20:00,40.0,35.0,30.14,WSW,246,0.0,0.0,82,0.00,,,0.00,weatherlink.com 1.10,2013-11-12 05:20:00,
2013-11-12 00:35:00,40.2,35.0,30.13,WSW,246,0.0,0.0,82,0.00,,,0.00,weatherlink.com 1.10,2013-11-12 05:35:00,
2013-11-12 00:50:00,40.2,35.0,30.13,WSW,246,0.0,0.0,83,0.00,,,0.00,weatherlink.com 1.10,2013-11-12 05:50:00,
2013-11-12 01:05:00,38.6,34.0,30.13,WSW,246,0.0,0.0,84,0.00,,,0.00,weatherlink.com 1.10,2013-11-12 06:05:00,
2013-11-12 01:20:00,38.2,34.0,30.13,WSW,246,0.0,0.0,85,0.00,,,0.00,weatherlink.com 1.10,2013-11-12 06:20:00,
2013-11-12 01:35:00,37.3,34.0,30.13,WSW,246,0.0,0.0,87,0.00,,,0.00,weatherlink.com 1.10,2013-11-12 06:35:00,
2013-11-12 01:50:00,37.7,34.0,30.12,WSW,246,0.0,0.0,87,0.00,,,0.00,weatherlink.com 1.10,2013-11-12 06:50:00,
2013-11-12 02:05:00,38.1,34.0,30.11,WSW,246,0.0,0.0,86,0.00,,,0.00,weatherlink.com 1.10,2013-11-12 07:05:00,
2013-11-12 02:20:00,36.8,34.0,30.11,WSW,246,0.0,0.0,88,0.00,,,0.00,weatherlink.com 1.10,2013-11-12 07:20:00,
2013-11-12 02:35:00,36.4,34.0,30.11,WSW,246,0.0,0.0,90,0.00,,,0.00,weatherlink.com 1.10,2013-11-12 07:35:00,
2013-11-12 02:50:00,37.5,35.0,30.11,WSW,246,0.0,0.0,89,0.00,,,0.00,weatherlink.com 1.10,2013-11-12 07:50:00,
2013-11-12 03:05:00,36.7,34.0,30.11,WSW,246,0.0,0.0,90,0.00,,,0.00,weatherlink.com 1.10,2013-11-12 08:05:00,
2013-11-12 03:20:00,37.1,35.0,30.10,WSW,246,0.0,0.0,90,0.00,,,0.00,weatherlink.com 1.10,2013-11-12 08:20:00,
2013-11-12 03:35:00,39.4,36.0,30.09,WSW,246,0.0,1.0,87,0.00,,,0.00,weatherlink.com 1.10,2013-11-12 08:35:00,
2013-11-12 03:50:00,40.0,36.0,30.09,WSW,246,0.0,0.0,85,0.00,,,0.00,weatherlink.com 1.10,2013-11-12 08:50:00,
2013-11-12 04:05:00,39.7,37.0,30.09,WSW,246,0.0,0.0,89,0.00,,,0.00,weatherlink.com 1.10,2013-11-12 09:05:00,
2013-11-12 04:20:00,39.9,37.0,30.09,WSW,246,0.0,1.0,88,0.00,,,0.00,weatherlink.com 1.10,2013-11-12 09:20:00,
2013-11-12 04:35:00,39.8,36.0,30.08,WSW,246,0.0,0.0,86,0.00,,,0.00,weatherlink.com 1.10,2013-11-12 09:35:00,
2013-11-12 04:50:00,39.1,36.0,30.07,WSW,246,1.0,1.0,87,0.00,,,0.00,weatherlink.com 1.10,2013-11-12 09:50:00,
2013-11-12 05:05:00,38.2,35.0,30.07,WSW,246,0.0,1.0,88,0.00,,,0.00,weatherlink.com 1.10,2013-11-12 10:05:00,
2013-11-12 05:20:00,37.9,35.0,30.07,WSW,246,0.0,0.0,89,0.00,,,0.00,weatherlink.com 1.10,2013-11-12 10:20:00,
2013-11-12 05:35:00,38.1,36.0,30.07,WSW,246,0.0,1.0,90,0.00,,,0.00,weatherlink.com 1.10,2013-11-12 10:35:00,
2013-11-12 05:51:00,38.0,35.0,30.06,NW,313,1.0,2.0,90,0.00,,,0.00,weatherlink.com 1.10,2013-11-12 10:51:00,
2013-11-12 06:06:00,37.3,35.0,30.07,NW,313,0.0,0.0,91,0.00,,,0.00,weatherlink.com 1.10,2013-11-12 11:06:00,
2013-11-12 06:21:00,36.9,35.0,30.07,NW,313,1.0,1.0,93,0.00,,,0.00,weatherlink.com 1.10,2013-11-12 11:21:00,
2013-11-12 06:36:00,37.8,36.0,30.07,NW,311,0.0,2.0,91,0.00,,,0.00,weatherlink.com 1.10,2013-11-12 11:36:00,
2013-11-12 06:51:00,38.0,36.0,30.07,NW,311,0.0,1.0,92,0.00,,,0.00,weatherlink.com 1.10,2013-11-12 11:51:00,
2013-11-12 07:06:00,38.3,36.0,30.07,NW,311,0.0,0.0,92,0.00,,,0.00,weatherlink.com 1.10,2013-11-12 12:06:00,
2013-11-12 07:21:00,38.8,37.0,30.07,NW,311,0.0,0.0,92,0.00,,,0.00,weatherlink.com 1.10,2013-11-12 12:21:00,
2013-11-12 07:36:00,39.7,38.0,30.08,NW,311,0.0,1.0,92,0.00,,,0.00,weatherlink.com 1.10,2013-11-12 12:36:00,
2013-11-12 07:51:00,40.3,38.0,30.08,NW,311,0.0,0.0,92,0.00,,,0.00,weatherlink.com 1.10,2013-11-12 12:51:00,
2013-11-12 08:06:00,41.2,39.0,30.08,NW,325,0.0,4.0,92,0.00,,,0.00,weatherlink.com 1.10,2013-11-12 13:06:00,
2013-11-12 08:21:00,42.3,39.0,30.09,NW,322,0.0,1.0,87,0.00,,,0.00,weatherlink.com 1.10,2013-11-12 13:21:00,
2013-11-12 08:36:00,43.6,39.0,30.08,NW,325,0.0,0.0,84,0.00,,,0.00,weatherlink.com 1.10,2013-11-12 13:36:00,
2013-11-12 08:51:00,44.7,39.0,30.09,NW,325,0.0,1.0,80,0.00,,,0.00,weatherlink.com 1.10,2013-11-12 13:51:00,
2013-11-12 09:06:00,44.3,39.0,30.09,NW,325,0.0,1.0,82,0.00,,,0.00,weatherlink.com 1.10,2013-11-12 14:06:00,
2013-11-12 09:21:00,46.0,40.0,30.09,NE,36,2.0,3.0,79,0.00,,,0.00,weatherlink.com 1.10,2013-11-12 14:21:00,
2013-11-12 09:36:00,48.3,40.0,30.09,NE,36,0.0,2.0,73,0.00,,,0.00,weatherlink.com 1.10,2013-11-12 14:36:00,
2013-11-12 09:51:00,51.5,39.0,30.09,North,355,0.0,4.0,62,0.00,,,0.00,weatherlink.com 1.10,2013-11-12 14:51:00,
2013-11-12 10:06:00,53.8,38.0,30.09,WNW,302,0.0,3.0,56,0.00,,,0.00,weatherlink.com 1.10,2013-11-12 15:06:00,
2013-11-12 10:21:00,56.8,38.0,30.10,NNE,12,3.0,4.0,50,0.00,,,0.00,weatherlink.com 1.10,2013-11-12 15:21:00,
2013-11-12 10:36:00,58.7,39.0,30.11,WNW,293,3.0,5.0,48,0.00,,,0.00,weatherlink.com 1.10,2013-11-12 15:36:00,
2013-11-12 10:51:00,59.4,38.0,30.10,NNE,12,1.0,3.0,45,0.00,,,0.00,weatherlink.com 1.10,2013-11-12 15:51:00,
2013-11-12 11:06:00,61.3,35.0,30.10,East,94,2.0,7.0,37,0.00,,,0.00,weatherlink.com 1.10,2013-11-12 16:06:00,
2013-11-12 11:22:00,62.5,36.0,30.09,North,360,2.0,10.0,37,0.00,,,0.00,weatherlink.com 1.10,2013-11-12 16:22:00,
2013-11-12 11:37:00,64.1,35.0,30.09,North,9,4.0,11.0,34,0.00,,,0.00,weatherlink.com 1.10,2013-11-12 16:37:00,
2013-11-12 11:52:00,64.4,35.0,30.09,ENE,63,7.0,11.0,34,0.00,,,0.00,weatherlink.com 1.10,2013-11-12 16:52:00,
2013-11-12 12:07:00,65.2,34.0,30.08,NNE,14,5.0,9.0,32,0.00,,,0.00,weatherlink.com 1.10,2013-11-12 17:07:00,
2013-11-12 12:22:00,65.6,36.0,30.08,NNW,338,5.0,13.0,33,0.00,,,0.00,weatherlink.com 1.10,2013-11-12 17:22:00,
2013-11-12 12:37:00,65.6,37.0,30.08,NNE,26,5.0,14.0,35,0.00,,,0.00,weatherlink.com 1.10,2013-11-12 17:37:00,
2013-11-12 12:52:00,65.1,38.0,30.08,NNE,24,4.0,13.0,37,0.00,,,0.00,weatherlink.com 1.10,2013-11-12 17:52:00,
2013-11-12 13:07:00,65.4,38.0,30.08,North,350,11.0,16.0,36,0.00,,,0.00,weatherlink.com 1.10,2013-11-12 18:07:00,
2013-11-12 13:22:00,62.2,39.0,30.09,North,5,10.0,16.0,43,0.00,,,0.00,weatherlink.com 1.10,2013-11-12 18:22:00,
2013-11-12 13:37:00,58.4,38.0,30.10,NNW,333,7.0,19.0,47,0.00,,,0.00,weatherlink.com 1.10,2013-11-12 18:37:00,
2013-11-12 13:52:00,57.0,37.0,30.11,NNW,327,6.0,14.0,48,0.00,,,0.00,weatherlink.com 1.10,2013-11-12 18:52:00,
2013-11-12 14:07:00,55.6,37.0,30.12,NE,48,4.0,18.0,50,0.00,,,0.00,weatherlink.com 1.10,2013-11-12 19:07:00,
2013-11-12 14:22:00,54.8,36.0,30.13,NNW,336,6.0,14.0,50,0.00,,,0.00,weatherlink.com 1.10,2013-11-12 19:22:00,
2013-11-12 14:37:00,53.8,35.0,30.13,North,5,6.0,16.0,50,0.00,,,0.00,weatherlink.com 1.10,2013-11-12 19:37:00,
2013-11-12 14:52:00,53.1,35.0,30.14,North,5,11.0,12.0,51,0.00,,,0.00,weatherlink.com 1.10,2013-11-12 19:52:00,
2013-11-12 15:07:00,52.4,35.0,30.15,NNE,24,7.0,16.0,52,0.00,,,0.00,weatherlink.com 1.10,2013-11-12 20:07:00,
2013-11-12 15:22:00,51.7,34.0,30.16,NNE,19,11.0,15.0,51,0.00,,,0.00,weatherlink.com 1.10,2013-11-12 20:22:00,
2013-11-12 15:37:00,50.1,33.0,30.17,NE,48,11.0,18.0,52,0.00,,,0.00,weatherlink.com 1.10,2013-11-12 20:37:00,
2013-11-12 15:52:00,48.9,32.0,30.18,NW,324,5.0,18.0,53,0.00,,,0.00,weatherlink.com 1.10,2013-11-12 20:52:00,
2013-11-12 16:07:00,47.8,32.0,30.19,NE,35,9.0,19.0,54,0.00,,,0.00,weatherlink.com 1.10,2013-11-12 21:07:00,
2013-11-12 16:22:00,46.6,31.0,30.20,NNW,345,13.0,21.0,54,0.00,,,0.00,weatherlink.com 1.10,2013-11-12 21:22:00,
2013-11-12 16:37:00,45.2,31.0,30.22,NNE,27,10.0,24.0,58,0.00,,,0.00,weatherlink.com 1.10,2013-11-12 21:37:00,
2013-11-12 16:52:00,42.9,33.0,30.24,NNE,16,10.0,22.0,68,0.00,,,0.00,weatherlink.com 1.10,2013-11-12 21:52:00,
2013-11-12 17:07:00,41.0,34.0,30.25,NNE,18,6.0,16.0,75,0.00,,,0.00,weatherlink.com 1.10,2013-11-12 22:07:00,
2013-11-12 17:22:00,41.0,33.0,30.25,NE,50,9.0,17.0,74,0.00,,,0.00,weatherlink.com 1.10,2013-11-12 22:22:00,
2013-11-12 17:37:00,40.8,33.0,30.27,NNE,17,6.0,18.0,73,0.00,,,0.00,weatherlink.com 1.10,2013-11-12 22:37:00,
2013-11-12 17:52:00,40.5,31.0,30.28,NE,40,4.0,15.0,70,0.00,,,0.00,weatherlink.com 1.10,2013-11-12 22:52:00,
2013-11-12 18:07:00,40.9,29.0,30.28,North,355,12.0,17.0,62,0.00,,,0.00,weatherlink.com 1.10,2013-11-12 23:07:00,
2013-11-12 18:23:00,40.6,27.0,30.31,North,349,10.0,23.0,58,0.00,,,0.00,weatherlink.com 1.10,2013-11-12 23:23:00,
2013-11-12 18:38:00,40.2,26.0,30.32,WNW,293,4.0,13.0,58,0.00,,,0.00,weatherlink.com 1.10,2013-11-12 23:38:00,
2013-11-12 18:53:00,39.7,26.0,30.33,NNE,22,7.0,16.0,59,0.00,,,0.00,weatherlink.com 1.10,2013-11-12 23:53:00,
2013-11-12 19:08:00,39.0,25.0,30.34,NNE,28,4.0,18.0,57,0.00,,,0.00,weatherlink.com 1.10,2013-11-13 00:08:00,
2013-11-12 19:23:00,38.4,24.0,30.34,NE,40,15.0,16.0,56,0.00,,,0.00,weatherlink.com 1.10,2013-11-13 00:23:00,
2013-11-12 19:38:00,37.8,22.0,30.36,North,355,6.0,21.0,54,0.00,,,0.00,weatherlink.com 1.10,2013-11-13 00:38:00,
2013-11-12 19:53:00,37.3,21.0,30.36,North,355,5.0,17.0,52,0.00,,,0.00,weatherlink.com 1.10,2013-11-13 00:53:00,
2013-11-12 20:08:00,36.7,20.0,30.37,NE,42,6.0,27.0,51,0.00,,,0.00,weatherlink.com 1.10,2013-11-13 01:08:00,
2013-11-12 20:23:00,35.7,19.0,30.39,North,355,14.0,22.0,51,0.00,,,0.00,weatherlink.com 1.10,2013-11-13 01:23:00,
2013-11-12 20:38:00,35.0,18.0,30.39,North,9,5.0,20.0,51,0.00,,,0.00,weatherlink.com 1.10,2013-11-13 01:38:00,
2013-11-12 20:53:00,34.4,19.0,30.41,NNE,15,6.0,18.0,53,0.00,,,0.00,weatherlink.com 1.10,2013-11-13 01:53:00,
2013-11-12 21:08:00,33.8,18.0,30.43,NE,42,7.0,22.0,53,0.00,,,0.00,weatherlink.com 1.10,2013-11-13 02:08:00,
2013-11-12 21:23:00,33.4,17.0,30.44,NNE,27,5.0,18.0,52,0.00,,,0.00,weatherlink.com 1.10,2013-11-13 02:23:00,
2013-11-12 21:38:00,32.7,17.0,30.45,North,5,6.0,11.0,52,0.00,,,0.00,weatherlink.com 1.10,2013-11-13 02:38:00,
2013-11-12 21:53:00,32.1,17.0,30.45,NW,320,6.0,13.0,54,0.00,,,0.00,weatherlink.com 1.10,2013-11-13 02:53:00,
2013-11-12 22:08:00,31.8,17.0,30.46,NNE,26,7.0,9.0,55,0.00,,,0.00,weatherlink.com 1.10,2013-11-13 03:08:00,
2013-11-12 22:23:00,31.2,17.0,30.46,NNE,27,3.0,8.0,56,0.00,,,0.00,weatherlink.com 1.10,2013-11-13 03:23:00,
2013-11-12 22:38:00,30.8,17.0,30.45,NNE,29,2.0,6.0,57,0.00,,,0.00,weatherlink.com 1.10,2013-11-13 03:38:00,
2013-11-12 22:53:00,30.3,17.0,30.46,North,360,3.0,6.0,58,0.00,,,0.00,weatherlink.com 1.10,2013-11-13 03:53:00,
2013-11-12 23:09:00,30.0,17.0,30.47,North,11,4.0,5.0,59,0.00,,,0.00,weatherlink.com 1.10,2013-11-13 04:09:00,
2013-11-12 23:24:00,29.9,17.0,30.47,NNE,26,5.0,7.0,59,0.00,,,0.00,weatherlink.com 1.10,2013-11-13 04:24:00,
2013-11-12 23:39:00,29.5,18.0,30.47,ENE,69,0.0,5.0,62,0.00,,,0.00,weatherlink.com 1.10,2013-11-13 04:39:00,
2013-11-12 23:54:00,28.8,18.0,30.46,NE,43,2.0,6.0,64,0.00,,,0.00,weatherlink.com 1.10,2013-11-13 04:54:00,